SGDC (42692 NORAD) Tracking and Keplerian Element Data

This shows tracking and keplerian element data for the satellite.

Feedback or suggestion? Click here.




ElementValue
Catalog42692
NameSGDC
Epoch Orbit1610
Epoch Day268.19615502
Epoch Year2021
RAAN83.942
Inclination0.0295
Eccentricity0.0002251
Argument of Perigee104.3697
Mean Anonmoly171.7014
Mean Motion1.002731
Decay Rate-2.54E-06
L11 42692U 17023B 21268.19615502 -.00000254 00000-0 00000-0 0 9996
L22 42692 0.0295 83.9420 0002251 104.3697 171.7014 1.00273100 16100

Live tracking and technical data element details for SGDC (NORAD 42692). SGDC can be tracked NOW for your location showing map with azimuth and elevation plus other details from your city location.

Track the satellite on the map from your city or location and see movement details for azimuth, elevation, latitude, longitude, range, height, and movement on the map or in text.







IsCatalogInMostPopularTable: catalog: 42692, numindb: 561
Update: records affected: 1



GetName: 42692 SGDC

Hit Count: updated at: Mon, 27 Sep 2021 01:59:06 GMT